Location: Devargunta
(16.7631°N, 80.9077°E)
Time: 10:41:55
(UTC+00:00)

Cosmos 540 Rocket - Pass Details

Date: 06 December 2021
Orbit: 739 x 754 km, 74.1° (Epoch: 16 January)

Event Time Altitude Azimuth Distance (km) Brightness Sun altitude
Rises 12:22:49 0° 240° (WSW) 3,164 9.2 -5.3°
Reaches altitude 10° 12:28:03 10° 286° (WNW) 2,242 6.8 -6.5°
Maximum altitude 12:28:22 10° 290° (WNW) 2,238 6.7 -6.5°
Drops below altitude 10° 12:28:41 10° 293° (WNW) 2,242 6.6 -6.6°
Sets 12:33:57 0° 339° (NNW) 3,166 6.7 -7.8°
